1st Responders/1st Detectors/Storm Spotters Weather Summary for Todd County, KY

Forecast Maps


Reg. NEXRAD Animation


National Fire Danger: Day 1 & 2 Map

Current NWS Watch/Warnings

SPC Convective Day 1 Outlook


Day 2 Outlook

(Click images to enlarge|Page will refresh every 5 minutes)
UK Ag. Weather Center Desktop Severe Weather Service[HERE]
Todd County, KY Hazardous Weather Outlook Webcast
(9 AM to 9 PM Mon-Fri)
[Fast]
[Dial-up]


UKAWC 1st Detectors/1st Responders Precision Weather Forecast For TODD County, Kentucky
(based on the NWS County Digital Forecast)

ISSUED AT 08:00 UTC ON SUNDAY SEP 15 2019
DAY SUNDAY
CDT 3HR 4A 5A 6A 7A 8A 9A 10A 11A NOON 1P 2P 3P 4P 5P 6P
MAX/MIN -- -- -- 59° -- -- -- -- -- -- -- -- -- -- 92°
TEMP 63° 61° 61° 61° 67° 74° 81° 85° 88° 90° 92° 92° 92° 90° 86°
SKY COVER 9% 9% 9% 9% 10% 12% 14% 14% 14% 14% 13% 13% 12% 10% 8%
Clouds
DEW PT 56° 56° 56° 56° 58° 61° 63° 63° 63° 63° 63° 63° 63° 63° 63°
RH 81% 83% 80% 83% 73% 62% 52% 48% 43% 39% 38% 37% 37% 41% 44%
POP 12HR -- -- -- 0% -- -- -- -- -- -- -- -- -- -- --
RAIN/SNOW (liq.equ) -- -- -- 0.00in -- -- -- -- -- 0.00in -- -- -- -- --
SNOWFALL -- -- -- 0in -- -- -- -- -- 0in -- -- -- -- --
WIND SPEED(MPH) 1 1 1 1 1 1 1 1 1 1 1 0 0 1 1
WIND Gust(MPH) 2 2 2 2 2 2 2 2 2 2 1 1 1 1 2
WIND DIR E E E E E SE SE S W NW NW N N N NE
DEW Lgt Dew Mod Dew Mod Dew Mod Dew Lgt Dew -- -- -- -- -- -- -- -- -- --
HeatIndex 63 61 61 61 67 74 83 87 90 92 93 94 94 90 87
WIND CHILL -- -- -- -- -- -- -- -- -- -- -- -- -- -- --
SPRAY COND
DRY COND
LIVESTOCK HEATSTRESS 62.56 60.79 60.76 60.79 65.78 70.82 75.14 77.51 78.85 79.53 80.68 80.50 80.50 79.88 77.62



DAY MONDAY TUESDAY WEDNESDAY THURSDAY FRIDAY SATURDAY
CDT 6HR 7P 8P 9P 10P 11P MIDN 1A 2A 3A 4A 5A 6A 7A 8A 9A 10A 11A NOON 1P 2P 3P 4P 7P 10P 1A 4A 7A 10A 1P 4P 7P 1A 7A 1P 7P 1A 7A 1P 7P 1A 7A 1P 7P 1A 7A 1P 7P
MAX/MIN -- -- -- -- -- -- -- -- -- -- -- -- 63° -- -- -- -- -- -- -- -- 92° -- -- -- -- 65° -- -- 90° -- -- 63° 88° -- -- 63° 88° -- -- 65° 88° -- -- 65° 88° --
TEMP 83° 79° 76° 74° 72° 70° 70° 70° 68° 67° 65° 63° 65° 70° 76° 83° 86° 90° 90° 92° 92° 92° 83° 74° 70° 67° 67° 79° 86° 88° 79° 68° 65° 85° 77° 68° 65° 88° 79° 70° 67° 85° 79° 67° 65° 85° 77°
SKY COVER 6% 6% 6% 6% 6% 6% 6% 7% 7% 8% 11% 14% 16% 3% 2% 2% 3% 4% 4% 6% 8% 10% 14% 13% 7% 3% 10% 14% 27% 20% 19% 11% 8% 21% 28% 24% 23% 30% 37% 33% 41% 30% 36% 32% 33% 23% 22%
Clouds
DEW PT 63° 63° 63° 63° 63° 63° 63° 63° 61° 61° 61° 61° 59° 59° 61° 63° 63° 63° 63° 63° 63° 63° 67° 67° 67° 65° 65° 67° 67° 65° 65° 63° 61° 63° 63° 61° 63° 65° 65° 63° 61° 63° 63° 63° 61° 61° 63°
RH 53% 58% 66% 70% 76% 76% 78% 78% 78% 84% 87% 90% 81% 70% 59% 50% 47% 42% 40% 39% 38% 40% 57% 79% 89% 93% 93% 66% 52% 48% 62% 84% 87% 46% 62% 78% 93% 47% 62% 78% 81% 48% 60% 84% 86% 44% 60%
POP 12HR 2% -- -- -- -- -- -- -- -- -- -- -- 1% -- -- -- -- -- -- -- -- -- 4% -- -- -- 2% -- -- -- 2% -- 0% -- 1% -- 0% -- 3% -- 4% -- 9% -- 5% -- 10%
RAIN/SNOW (liq.equ) 0.00in -- -- -- -- -- 0.00in -- -- -- -- -- 0.00in -- -- -- -- -- 0.00in -- -- -- 0.00in -- 0.00in -- 0.00in -- 0.00in -- 0.00in -- -- -- -- -- -- -- -- -- -- -- -- -- -- -- --
SNOWFALL 0in -- -- -- -- -- 0in -- -- -- -- -- 0in -- -- -- -- -- 0in -- -- -- 0in -- 0in -- 0in -- 0in -- 0in -- -- -- -- -- -- -- -- -- -- -- -- -- -- -- --
WIND SPEED(MPH) 2 2 2 2 2 1 1 0 0 0 0 0 0 0 0 0 0 1 1 1 1 1 2 1 1 0 0 2 6 6 6 2 1 2 2 1 1 6 2 5 2 6 2 1 1 6 2
WIND DIR E E E E SE SE SE SE S S S SW SW NW NW NW NW N N N N N N NE NE NE NE NE NE N NE E E NE NE E S S S S S S S S S W S
HeatIndex 84 81 76 74 72 70 70 70 68 67 65 63 65 70 76 84 88 91 92 93 94 93 86 74 70 67 67 82 89 90 82 68 65 86 77 68 65 90 82 70 67 85 79 67 65 86 77
WIND CHILL -- -- -- -- -- -- -- -- -- -- -- -- -- -- -- -- -- -- -- -- -- -- -- -- -- -- -- -- -- -- -- -- -- -- -- -- -- -- -- -- -- -- -- -- -- -- --
SPRAY COND
DRY COND
LIVESTOCK HEATSTRESS 76.74 74.33 72.78 71.49 70.26 68.52 68.64 68.64 66.89 66.28 64.56 62.77 64.35 68.15 72.12 76.34 78.07 80.05 79.70 80.86 80.68 81.04 77.28 72.24 69.32 66.68 66.68 75.22 78.82 79.65 74.78 67.19 64.56 77.22 73.20 66.89 64.76 79.49 74.78 68.64 66.14 77.51 74.56 66.28 64.52 76.93 73.00

Click on individual weather variable above in left-hand column (ie., TEMP, RH, QPF 12HR) to view state forecast maps






NWS 48 Hr. Forecast Maps,

Regional Hourly Observations For TODD County, Kentucky
Issued at 400 AM EDT SUN SEP 15 2019
WESTERN AND SOUTH CENTRAL KENTUCKY
  
CITY           SKY/WX    TMP DP  RH WIND       PRES   REMARKS
PADUCAH        FAIR      64  61  90 CALM      30.14F                  
HENDERSON      FAIR      57  55  93 CALM      30.18S                  
OWENSBORO      FAIR      63  56  78 CALM      30.18F                  
HOPKINSVILLE   FAIR      67  56  67 CALM      30.16F                  
BOWLING GREEN  FAIR      64  56  75 CALM      30.18F                  
GLASGOW        FAIR      61  53  74 CALM      30.19F                  


Current NOWCAST not available:
Nowcasts are not issued routinely during fair weather. Only when
precipitation or other significant weather is occuring in this county will these
forecasts be issued. Currently, there is no short term forecast in effect.


Fire Weather Forecast For TODD County, KY
Provided by the National Weather Service:

Issued at: Sun Sep 15 04:05:01 EDT 2019

Precip Type           None         None         None         None         
Chance Precip (%)     0            0            0            10           
High Temperature(F)                89-93                     90-94        
Minimum RH(%)                      31-36                     33-38        
Low Temperature(F)    57-61                     62-66                     
Maximum RH(%)         84-89                     89-94                     
Temp (24h Trend)      59 (-5)      93 (+7)      64           94           
RH % (24h Trend)      87 (+3)      34 (0)       92           36           
20FTWND-AM(MPH)                    Lgt/Var                   Lgt/Var      
20FTWND-PM(MPH)       Lgt/Var      Lgt/Var      Lgt/Var      Lgt/Var      
Precip Amount         0.00         0.00         0.00         0.00         
Precip Duration                                              0            
Precip Begin                                                              
Precip End                                                                
1700'Mix Hgt Temp                  82                        86           
Mixing Hgt(FT-AGL)                 5477                      6224         
Transport Wind (KTS)               NW  3                     NW  5        
Transport Wind (M/S)               NW  2                     NW  3        
Vent Rate (M/S-M)                  2582                      4889         
Dispersion Index                   Poor to Fair              Fair         
LAL                   1            1            1            1            
Haines Index          4            5            5            4            
Stability(DSI)        N/A          SLGT UNSTBL  N/A          MOD UNSTBL   

Remarks...None.

.Forecast for days 3 through 7...

.MONDAY NIGHT...Mostly clear. Lows in the mid 60s. North winds
around 5 mph in the evening becoming light. 
.TUESDAY...Sunny. Highs in the lower 90s. Northeast winds around
5 mph. 
.TUESDAY NIGHT...Mostly clear. Lows in the mid 60s. East winds
around 5 mph. 
.WEDNESDAY...Mostly sunny. Highs around 90. Northeast winds
around 5 mph. 
.WEDNESDAY NIGHT...Partly cloudy. Lows in the mid 60s. Northeast
winds around 5 mph shifting to the southeast after midnight. 
.THURSDAY...Mostly sunny. Highs around 90. South winds around
5 mph. 
.THURSDAY NIGHT...Partly cloudy. Lows in the mid 60s. South winds
around 5 mph. 
.FRIDAY...Mostly sunny. Highs in the upper 80s. South winds
around 5 mph. 
.FRIDAY NIGHT...Partly cloudy. Lows in the mid 60s. South winds
around 5 mph. 
.SATURDAY...Mostly sunny. Highs in the upper 80s. Southwest winds
5 to 10 mph. 

SPC's Fire Weather Web Tool (Excellent!), SPC's Fire Weather Outlooks, NWS Fire Weather WEB, Fire Danger Class Map,
Keetch-Byram Drought Index, ROMAN Web, Haines Index ,
WFAS's 10-hr Dead Fuel Moist., WFAS's 100-hr Dead Fuel Moist., Probablity of Ignition, Visual blackness Map, Palmer Drought Index, HPC's Rainfall Forecast Maps


Hazardous Weather Outlook For TODD County, Kentucky
248 PM CDT Sat Sep 14 2019

 DAY ONE  Tonight

No hazardous weather is expected at this time.

 DAYS TWO THROUGH SEVEN  Sunday through Friday

Heat index values near 100 are forecast for part of the outlook
area Monday afternoon. 

A small chance of thunderstorms returns to the forecast Thursday
afternoon and again on Friday. Heavy rain and lightning will be 
the primary storm hazards, should any storms develop.

 SPOTTER INFORMATION STATEMENT  

Spotter activation will not be needed.

Latest TODD County, Kentucky Watches, Warnings and Advisories.
Additional Drought Info.: UKAWC Drought Page, Kentucky Drought Watch


7-Day Forecast For TODD County, KY

TONIGHT
Mostly clear. Lows around 60. East winds around 5 mph.

SUNDAY
Sunny. Highs in the lower 90s. Southeast winds around 5 mph in the morning shifting to the northwest in the afternoon.

SUNDAY NIGHT
Clear. Lows in the mid 60s. East winds around 5 mph in the evening becoming calm after midnight.

MONDAY
Mostly sunny. Highs in the lower 90s. West winds 5 mph in the morning shifting to the north in the afternoon.

MONDAY NIGHT
Mostly clear. Lows in the mid 60s. North winds 5 mph in the evening becoming calm after midnight.

TUESDAY
Mostly sunny. Highs in the lower 90s.

TUESDAY NIGHT
Mostly clear. Lows in the mid 60s.

WEDNESDAY
Mostly sunny. Highs around 90.

WEDNESDAY NIGHT
Mostly clear. Lows in the mid 60s.

THURSDAY
Mostly sunny. Highs around 90.

THURSDAY NIGHT
Mostly clear. Lows in the mid 60s.

FRIDAY
Partly sunny. Highs in the upper 80s.

FRIDAY NIGHT
Partly cloudy. Lows in the mid 60s.

SATURDAY
Mostly sunny. Highs in the upper 80s.

Ag Weather Center, Department of Biosystems & Agricultural Engineering, University of Kentucky